Flag for Germany Weather past 2 weeks in Straubing, Bavaria, Germany

Now
62 °F

Overcast.


Feels Like: 62 °F
Forecast: 44 / 71 °F
Wind: 6 mph from Southwest

Location: Straubing

Current Time: May 30, 2015 at 9:30:56 AM

Latest Report: May 30, 2015 at 9:00 AM


Visibility: 11 mi

Pressure: 29.91 "Hg

Humidity: 79%

Dew point: 55 °F

Location of StraubingLocation

Historic Weather in Straubing — Graph

°F

Straubing temperature yesterday

Maximum temperature yesterday: 72 °F (at 4:00 PM)
Minimum temperature yesterday: 47 °F (at 6:00 AM)
Average temperature yesterday: 61 °F

Past Weeks' High & Low Weather Summary

 TemperatureHumidityPressure
High74 °F (May 18, 6:00 PM)100% (May 25, 2:00 AM)30.32 "Hg (May 25, 2:00 AM)
Low40 °F (May 28, 2:00 AM)36% (May 16, 3:00 PM)29.70 "Hg (May 18, 8:00 PM)
Average55 °F77%30.05 "Hg
* Reported May 15 8:00 AM — May 30 8:00 AM, Straubing, Weather by CustomWeather, © 2015

Note: Actual official high and low records may vary slightly from our data, if they occured in-between our weather recording intervals... More about our weather records

Advertising

Straubing weather history for previous 24 hours

 ConditionsComfort  
Time TempWeatherWind HumidityBarometerVisibility
8:00 AM
Sat, May 30
58 °FFog.3 mph91%29.93 "Hg4 mi
7:00 AM53 °FFog.2 mph99%29.94 "Hg3 mi
6:00 AM52 °FOvercast.2 mph100%29.94 "Hg4 mi
5:00 AM52 °FFog.1 mph100%29.93 "Hg2 mi
4:00 AM54 °FOvercast.1 mph98%29.92 "Hg7 mi
3:00 AM53 °FFog.3 mph100%29.91 "Hg4 mi
2:00 AM53 °FFog.2 mph100%29.90 "Hg4 mi
1:00 AM54 °FPassing clouds.1 mph99%29.90 "Hg2 mi
12:00 AM56 °FLight rain. Passing clouds.2 mph97%29.88 "Hg8 mi
10:00 PM
Fri, May 29
58 °FPassing clouds.1 mph89%29.83 "Hg22 mi
9:00 PM60 °FPassing clouds.2 mph92%29.81 "Hg17 mi
8:00 PM62 °FOvercast.2 mph83%29.81 "Hg25 mi
7:00 PM62 °FOvercast.2 mph77%29.81 "Hg31 mi
6:00 PM70 °FLight rain. Overcast.5 mph50%29.80 "Hg43 mi
4:00 PM72 °FOvercast.3 mph43%29.82 "Hg34 mi
3:00 PM72 °FPartly sunny.6 mph42%29.84 "Hg12 mi
2:00 PM70 °FOvercast.6 mph46%29.87 "Hg25 mi
1:00 PM68 °FOvercast.3 mph61%29.89 "Hg9 mi
12:00 PM66 °FSunny.3 mph63%29.92 "Hg9 mi
10:00 AM60 °FScattered clouds.2 mph70%29.96 "Hg7 mi
9:00 AM58 °FPartly sunny.2 mph76%29.97 "Hg6 mi
Weather by CustomWeather, © 2015

See weather overviewHow to use our weather pages